CZ-3B DEB, 40164

Orbit data source: Space-Track

CZ-3B DEB, 40164 is space debris originally from a launch on Sat, 04 Sep 2010 UTC launched from the Xichang Space Center, China (XSC). Debris objects in space refer to the collection of defunct objects orbiting the Earth. Examples of debris include non-operational satellites, rocket bodies, and fragments generated from explosions, collisions, or faulty payload assembly.

Loading next visibility...
CZ-3B DEB details
Identifier
40164, 2010-042R
Orbit
Molniya
Last TLE update18 hours ago
Origin
Flag of CNCASC (CN / PRC)
ManufacturerCALT
MissionSpacecraft
Bus & MotorUnknown
MassUnknown
Launch date (UTC)
2010-09-04 (14 years ago)
Launch vehicleUnknown
Launch site
Xichang Space Center, China (XSC)
Object type
Payload
Rocket body
Debris
Shape & HBRUnknown
Radar Cross SectionMedium (>0.1 m² and <1 m²)

Expand to show TLE details & history

TLE from 18 hours ago
0 CZ-3B DEB
1 40164U 10042R   24348.40800267 -.00000059  00000-0  00000-0 0  9995
2 40164  27.6293  10.0083 7277027 159.9337 253.7506  1.89863207 76798
Epoch: 2024-12-13T09:47Z
Definitive object data (Epoch: 2024-12-13T09:47:31.43Z)
Latitude-0.72451°
Longitude139.17767°
Altitude35,430.087 km
Speed2.145 km/s
True Right ascension00h 34m 31s
True Declination0° 43' 26"
Sunlit
Object was in daylight at TLE epoch
Visualization TLE readout
Latitude-26.53341°
Longitude68.12421°
Altitude16,188.53 km
Speed4.568 km/s
Apparent Right ascension18h 56m 09s
Apparent Declination-34° 03' 06"
Sunlit
Object is in daylight
Visualization observer readout
Local Sidereal Time01:56:51
Azimuth250.047° W
Elevation-31.712°
Doppler factor1
Orbital elements
Apogee altitude41,224.406 km
Perigee altitude1,124.337 km
Semi-major axis27,552.508 km
Eccentricity0.7277027
Inclination27.6293°
RAAN10.0083°
Arg. of periapsis159.9337°
True anomaly198.4583°
Mean anomaly253.7506°
Eccentric anomaly224.51757°
Mean motion0.47457 °/min
BSTARUnknown
Orbital period758.58 mins
Loading maneuver chart data...
Loading historical data...
Loading historical data...
Loading historical data...
Loading historical data...
Loading historical data...
Loading historical data...
Loading historical data...

CZ-3B DEB Visibility forecast

Observer location: undefined°, undefined

Span
Click to sort rows by Start time (UTC) header in descending order
Start Az.
Max El. time (UTC)
Max El. Az.
Max El.
End time (UTC)
End Az.
356 mins2024-12-14 21:01:08.508Z119.147° SE2024-12-15 01:56:08.508Z131.812° SE34.569°2024-12-15 02:57:08.508Z87.694° E
|